Talkeetna, AK

1:41 AM AKDT on March 27, 2017 (GMT -0800)
Talkeetna

Weather History for PATK - February, 2013

Change the Weather History Date:

Friday, February 15, 2013

  Actual Average Record
Temperature  
Mean Temperature 22 °F -  
Max Temperature 30 °F 25 °F 44 °F (1986)
Min Temperature 10 °F 1 °F -33 °F (1964)
Degree Days  
Heating Degree Days 42    
Moisture  
Dew Point 26 °F    
Average Humidity 93    
Maximum Humidity 100    
Minimum Humidity 73    
Precipitation  
Precipitation 0.08 in - - ()
Snow  
Snow 0.00 in - - ()
Snow Depth 34.00 in    
Sea Level Pressure  
Sea Level Pressure 29.64 in    
Wind  
Wind Speed 4 mph (South)    
Max Wind Speed 12 mph    
Max Gust Speed -    
Visibility 3 miles    
Events Fog , Snow    
Averages and records for this station are not official NWS values.
T = Trace of Precipitation, MM = Missing Value Source: NWS Daily Summary

Daily Weather History Graph

Daily Weather History Graph

Search for Another Location

Airport or City:

Trip Planner

Search our weather history database for the weather conditions in past years. The results will help you decide how hot, cold, wet, or windy it might be!

Date:

Astronomy

Feb. 15, 2013 Rise Set
Actual Time 8:45 AM AKST 5:44 PM AKST
Civil Twilight 7:58 AM AKST 6:31 PM AKST
Nautical Twilight 7:05 AM AKST 7:24 PM AKST
Astronomical Twilight 6:14 AM AKST 8:16 PM AKST
Moon 9:26 AM AKST (2/15) 12:51 AM AKST (2/15)
Length of Visible Light 10h 33m
Length of Day
8h 58m
Waxing Crescent, 31% of the Moon is Illuminated
Feb 15
Waxing Crescent
Feb 17
First Quarter
Feb 25
Full
Mar 4
Last Quarter
Mar 11
New

Hourly Weather History & Observations

Time (AKST) Temp. Windchill Dew Point Humidity Pressure Visibility Wind Dir Wind Speed Gust Speed Precip Events Conditions
12:22 AM 30.2 °F 26.7 °F 28.4 °F 93% 29.47 in 2.5 mi South 3.5 mph - 0.01 in Snow Light Snow
12:34 AM 30.2 °F 24.3 °F 28.4 °F 93% 29.47 in 1.0 mi South 5.8 mph - 0.02 in Snow Light Snow
12:53 AM 30.0 °F 25.2 °F 28.9 °F 96% 29.49 in 1.2 mi South 4.6 mph - 0.03 in Snow Light Snow
1:13 AM 30.2 °F 26.7 °F 28.4 °F 93% 29.48 in 1.5 mi SE 3.5 mph - 0.00 in Snow Light Snow
1:53 AM 30.0 °F 24.1 °F 28.9 °F 96% 29.51 in 1.8 mi South 5.8 mph - 0.02 in Snow Light Snow
2:00 AM 30.2 °F 24.3 °F 28.4 °F 93% 29.49 in 1.5 mi SSE 5.8 mph - 0.00 in Snow Light Snow
2:14 AM 30.2 °F 24.3 °F 28.4 °F 93% 29.50 in 1.5 mi South 5.8 mph - 0.01 in Snow Light Snow
2:43 AM 30.2 °F 24.3 °F 30.2 °F 100% 29.51 in 2.0 mi South 5.8 mph - 0.02 in Snow Light Snow
3:29 AM 30.2 °F 24.3 °F 30.2 °F 100% 29.52 in 1.5 mi South 5.8 mph - 0.00 in Snow Light Snow
3:53 AM 30.9 °F 25.2 °F 28.9 °F 92% 29.55 in 3.0 mi South 5.8 mph - 0.01 in Snow Light Snow
4:10 AM 30.2 °F 24.3 °F 28.4 °F 93% 29.53 in 2.5 mi South 5.8 mph - 0.00 in Snow Light Snow
4:27 AM 30.2 °F 24.3 °F 30.2 °F 100% 29.53 in 1.5 mi South 5.8 mph - 0.01 in Snow Light Snow
4:46 AM 30.2 °F 25.4 °F 30.2 °F 100% 29.54 in 1.5 mi South 4.6 mph - 0.02 in Snow Light Snow
4:53 AM 30.0 °F 26.5 °F 30.0 °F 100% 29.55 in 1.5 mi South 3.5 mph - 0.02 in Snow Light Snow
5:28 AM 30.2 °F 25.4 °F 30.2 °F 100% 29.54 in 2.5 mi SSW 4.6 mph - 0.01 in Snow Light Snow
5:38 AM 30.2 °F 26.7 °F 30.2 °F 100% 29.55 in 1.2 mi SSW 3.5 mph - 0.01 in Snow Light Snow
5:53 AM 30.9 °F 27.5 °F 30.0 °F 96% 29.57 in 1.8 mi SSW 3.5 mph - 0.02 in Snow Light Snow
6:15 AM 30.2 °F - 30.2 °F 100% 29.55 in 1.0 mi Calm Calm - 0.01 in Snow Light Snow
6:35 AM 30.2 °F - 30.2 °F 100% 29.56 in 0.8 mi Calm Calm - 0.02 in Snow Light Snow
6:46 AM 30.2 °F - 30.2 °F 100% 29.56 in 1.0 mi Calm Calm - 0.03 in Snow Light Snow
6:53 AM 30.0 °F - 30.0 °F 100% 29.58 in 1.2 mi Calm Calm - 0.04 in Snow Light Snow
7:10 AM 30.2 °F - 30.2 °F 100% 29.57 in 1.5 mi Calm Calm - 0.00 in Snow Light Snow
7:53 AM 30.0 °F - 30.0 °F 100% 29.60 in 1.0 mi Calm Calm - 0.02 in Snow Light Snow
8:05 AM 30.2 °F - 30.2 °F 100% 29.58 in 1.0 mi Calm Calm - 0.01 in Snow Light Snow
8:17 AM 30.2 °F - 30.2 °F 100% 29.58 in 1.0 mi Calm Calm - 0.02 in Snow Light Snow
8:53 AM 30.0 °F - 30.0 °F 100% 29.61 in 1.0 mi Calm Calm - 0.04 in Snow Light Snow
8:59 AM 30.2 °F - 30.2 °F 100% 29.60 in 0.8 mi Calm Calm - 0.00 in Snow Light Snow
9:10 AM 30.2 °F - 30.2 °F 100% 29.60 in 0.8 mi Calm Calm - 0.00 in Snow Light Snow
9:20 AM 30.2 °F - 30.2 °F 100% 29.60 in 0.8 mi Calm Calm - 0.01 in Snow Light Snow
9:32 AM 30.2 °F - 30.2 °F 100% 29.61 in 1.0 mi Calm Calm - 0.01 in Snow Light Snow
9:40 AM 30.2 °F 24.3 °F 30.2 °F 100% 29.61 in 1.0 mi South 5.8 mph - 0.01 in Snow Light Snow
9:53 AM 30.0 °F 24.1 °F 28.9 °F 96% 29.63 in 1.2 mi South 5.8 mph - 0.02 in Snow Light Snow
10:24 AM 30.2 °F 26.7 °F 28.4 °F 93% 29.62 in 3.0 mi South 3.5 mph - 0.00 in Snow Light Snow
10:44 AM 30.2 °F - 28.4 °F 93% 29.63 in 7.0 mi Calm Calm - 0.00 in Snow Light Snow
10:53 AM 30.0 °F 26.5 °F 28.0 °F 92% 29.65 in 3.0 mi South 3.5 mph - 0.00 in Snow Light Snow
11:00 AM 30.2 °F 25.4 °F 28.4 °F 93% 29.63 in 3.0 mi South 4.6 mph - 0.00 in Snow Light Snow
11:03 AM 30.2 °F 25.4 °F 28.4 °F 93% 29.63 in 1.2 mi South 4.6 mph - 0.01 in Snow Light Snow
11:17 AM 30.2 °F 25.4 °F 28.4 °F 93% 29.64 in 0.8 mi South 4.6 mph - 0.01 in Snow Light Snow
11:33 AM 30.2 °F 25.4 °F 28.4 °F 93% 29.64 in 1.0 mi SSE 4.6 mph - 0.01 in Snow Light Snow
11:53 AM 30.0 °F 25.2 °F 28.0 °F 92% 29.67 in 1.5 mi SSE 4.6 mph - 0.02 in Snow Light Snow
12:33 PM 30.2 °F 26.7 °F 28.4 °F 93% 29.65 in 3.0 mi South 3.5 mph - 0.00 in Snow Light Snow
12:36 PM 30.2 °F 25.4 °F 28.4 °F 93% 29.65 in 3.0 mi South 4.6 mph - 0.00 in Snow Light Snow
12:45 PM 30.2 °F 26.7 °F 28.4 °F 93% 29.65 in 1.8 mi South 3.5 mph - 0.00 in Snow Light Snow
12:53 PM 30.0 °F 25.2 °F 28.0 °F 92% 29.68 in 0.8 mi South 4.6 mph - 0.00 in Snow Light Snow
12:59 PM 30.2 °F 23.4 °F 28.4 °F 93% 29.65 in 1.0 mi South 6.9 mph - 0.00 in Snow Light Snow
1:07 PM 30.2 °F 25.4 °F 28.4 °F 93% 29.66 in 1.8 mi South 4.6 mph - 0.01 in Snow Light Snow
1:15 PM 30.2 °F 24.3 °F 28.4 °F 93% 29.66 in 2.0 mi South 5.8 mph - 0.01 in Snow Light Snow
1:38 PM 30.2 °F 24.3 °F 28.4 °F 93% 29.66 in 1.0 mi South 5.8 mph - 0.01 in Snow Light Snow
1:46 PM 28.4 °F 20.4 °F 26.6 °F 93% 29.67 in 0.8 mi South 8.1 mph - 0.01 in Snow Light Snow
1:53 PM 28.9 °F 23.9 °F 27.0 °F 92% 29.69 in 0.8 mi South 4.6 mph - 0.01 in Snow Light Snow
2:07 PM 28.4 °F 22.2 °F 26.6 °F 93% 29.67 in 0.8 mi South 5.8 mph - 0.01 in Snow Light Snow
2:27 PM 28.4 °F 19.7 °F 26.6 °F 93% 29.67 in 0.5 mi SSW 9.2 mph - 0.02 in Fog , Snow Snow
2:39 PM 28.4 °F 21.2 °F 26.6 °F 93% 29.68 in 0.5 mi SSW 6.9 mph - 0.02 in Fog , Snow Light Snow
2:53 PM 28.0 °F 20.0 °F 26.1 °F 92% 29.70 in 0.5 mi SSW 8.1 mph - 0.02 in Fog , Snow Light Snow
3:51 PM 26.6 °F 20.0 °F 24.8 °F 93% 29.70 in 1.0 mi South 5.8 mph - 0.02 in Snow Light Snow
3:52 PM 26.1 °F 18.4 °F 24.1 °F 92% 29.73 in 1.0 mi South 6.9 mph - 0.02 in Snow Light Snow
4:22 PM 26.6 °F 16.2 °F 24.8 °F 93% 29.72 in 3.0 mi South 11.5 mph - 0.01 in Snow Light Snow
4:53 PM 26.1 °F 16.8 °F 21.9 °F 84% 29.75 in 9.0 mi South 9.2 mph - 0.01 in   Overcast
5:53 PM 24.1 °F 14.4 °F 19.9 °F 84% 29.78 in 10.0 mi South 9.2 mph - N/A   Overcast
6:53 PM 24.1 °F 14.4 °F 19.0 °F 81% 29.80 in 10.0 mi South 9.2 mph - N/A   Overcast
7:53 PM 23.0 °F 13.9 °F 17.1 °F 78% 29.83 in 10.0 mi South 8.1 mph - N/A   Overcast
8:06 PM 21.2 °F 12.6 °F 17.6 °F 86% 29.81 in 10.0 mi South 6.9 mph - N/A   Overcast
8:53 PM 21.0 °F 11.4 °F 16.0 °F 81% 29.84 in 10.0 mi South 8.1 mph - N/A   Overcast
9:45 PM 19.4 °F 11.5 °F 14.0 °F 80% 29.83 in 10.0 mi South 5.8 mph - N/A   Overcast
9:53 PM 19.9 °F 13.4 °F 14.0 °F 78% 29.86 in 10.0 mi SSW 4.6 mph - N/A   Overcast
10:36 PM 19.4 °F 14.3 °F 12.2 °F 74% 29.85 in 10.0 mi SSW 3.5 mph - N/A   Overcast
10:53 PM 19.0 °F 13.9 °F 12.0 °F 74% 29.88 in 10.0 mi South 3.5 mph - N/A   Overcast
11:36 PM 15.8 °F - 10.4 °F 79% 29.87 in 10.0 mi Calm Calm - N/A   Scattered Clouds
11:53 PM 10.9 °F - 8.1 °F 88% 29.90 in 10.0 mi Calm Calm - N/A   Scattered Clouds